Location:  
MeteoStar

Sort by weather type Sort by elevation Sort by visibility Sort from west to east north Sort from north to south Alphabetically Sort from strongest wind speed Sort from lowest to highest pressure Sort from highest to lowest dew point temperature Sort coolest temperatures to warmest Sort warm temperatures to coolest
 Metric

Current Observations for United Kingdom sorted from coolest to warmest

Cairngorm13:00ZNot Avail.38 2820SW 7 334084
Leeds And Bradford12:20ZClear48 46251015.4NNE 7 45682
Fylingdales13:00ZNot Avail.48 4730NNE 8 44859
Bingley13:00ZNot Avail.49 46301015.0ENE 6 46859
Birmingham / Airport12:20ZLight Drizzle50 502.251013.2NNE 8 47324
Lyneham13:00ZNot Avail.50 50251011.9NE 14 45475
Bristol / Lulsgate 12:20ZLight Rain50 502.51012.3NE 15 45620
Newcastle 12:20ZClear50 45301015.3N 2 50265
East Midlands12:20ZLight Rain50 5041013.2NNE 9 46308
Spadeadam12:50ZClear50 3941015.7ENE 5 481066
Boulmer12:50ZClear50 46201016.2NNE 2 5075
Spadeadam13:00ZNot Avail.50 39201015.7ENE 5 48935
Nottingham Weather Centre13:00ZLight Drizzle50 4851014.2NE 10 46383
Little Rissington13:00ZNot Avail.50 5031012.2NE 14 45705
Dunkeswell Aerodrome13:00ZNot Avail.50 N/A71010.9ENE 13 826
Wittering13:00ZHaze51 N/A41012.5NNE 13 275
Saint Bees Head13:00ZNot Avail.51 47201015.4N 8 48406
Loftus Samos13:00ZNot Avail.51 47301015.5NE 7 48190
Shobdon13:00ZNot Avail.51 4941013.7NE 4 50324
Pershore13:00ZRain51 5041013.7NNE 4 50104
Staverton Private 12:20ZLight Rain52 5041012.1NE 6 5095
Manchester Airport12:20ZPartly Cloudy52 4641014.2NE 10 49226
Humberside12:20ZCloudy52 502.751014.1NNE 13 48101
Tees-Side12:20ZMostly Cloudy52 46301015.2NNE 7 50121
Shawbury12:50ZLight Drizzle52 48111014.2NNE 4 51249
Scatsa / Shetland Island12:20ZShowers nearby52 46131011.1SW 18 4772
Dundee / Riverside12:20ZClear52 45131015.1CALM5213
Brize Norton12:19ZLight Drizzle52 521.51012.2NNE 9 49288
Cosford Royal Air Force Base12:50ZRain52 481.871014.2NNE 5 51272
Leeming12:50ZMostly Cloudy52 48201015.2NNE 6 50131
Linton-On-Ouse12:50ZMostly Cloudy52 48181015.1N 4 5152
Leconfield12:50ZMostly Cloudy52 48181014.1NNE 10 4919
Waddington12:50ZMostly Cloudy52 50181013.2NNE 12 48223
Topcliffe Royal Air Force Base 12:50ZMostly Cloudy52 48181015.2N 9 4991
Cranwell12:50ZLight Rain52 50181013.2NNE 12 48219
Eskdalemuir13:00ZClear52 38301015.7SE 4 51793
Redesdale13:00ZNot Avail.52 40201016ESE 3 52692
Capel Curig13:00ZNot Avail.52 44301014.7E 13 48708
Rhyl13:00ZNot Avail.52 45301015.0NNE 5 51252
Aberporth13:00ZNot Avail.53 47251013.4NNE 9 50436
Wainfleet13:00ZNot Avail.53 51201013.0NNE 16 Gusting to 26 489
Dundrennan13:00ZNot Avail.53 42251015.0N 4 52374
Charterhall13:00ZNot Avail.53 45251015.7S 4 52367
Donna Nook13:00ZNot Avail.53 51161013.7N 18 4826
Larkhill13:00ZLight Drizzle53 521.51011.2NE 11 49433
Eglinton / Londonderr12:20ZClear54 45251015.1ENE 3 5429
Boscombe Down12:34ZLight Drizzle54 52251011.2NE 7 52406
St Athan Royal Air Force Base12:50ZMostly Cloudy54 48251012.2NE 15 50164
Yeovilton12:50ZLight Drizzle54 5031011.1NE 13 5075
Cardiff-Wales Airport12:20ZMostly Cloudy54 4831012.2NE 16 50219
Liverpool Airport 12:20ZClear54 462.51014.1ENE 11 5185
Luton Airport 12:20ZMist54 5421011.2NNE 11 51524
Hawarden12:20ZPartly Cloudy54 46201015.1NNE 6 5232
Kirkwall Airport12:20ZClear54 45201012.1SSW 12 5068
Sumburgh Cape 12:20ZClear54 48201012.1SW 16 5016
Wick12:20ZNot Avail.54 45201013.2SW 10 51127
Aberdeen / Dyce12:20ZNot Avail.54 39131015.3SW 4 53213
Edinburgh Airport12:20ZNot Avail.54 43131016.2N 2 54134
Stornoway12:20ZClear54 45201012.1SW 14 5029
Cranfield12:20ZLight Drizzle54 541.251011.2NNE 11 51364
Exeter Airport12:20ZLight Drizzle54 521.251010.1NNE 8 5298
Benson12:50ZLight Drizzle54 5441011.2NNE 9 51206
Odiham12:13ZMist54 542.51011.2NE 5 53403
Middle Wallop12:50ZCloudy54 522.51010.2NE 10 51298
Coningsby Royal Air Force Base12:50ZCloudy54 5021013.1NNE 9 5122
Holbeach12:50ZMist54 5231012.1NE 23 489
Marham12:50ZLight Rain54 542.51012.1NNE 12 5075
Aultbea13:00ZClear54 48201013.2SSW 14 5036
Carlisle13:00ZNot Avail.54 44301015.9N 5491
Aberdaron13:00ZNot Avail.54 44301015NNE 11 51311
Ballypatrick Forest13:00ZNot Avail.54 44201015SSE 4 53511
Belfast / Aldergrove Airport12:20ZNot Avail.55 43251015.3N 2 55265
Chivenor13:00ZNot Avail.55 49251011.7ENE 13 5526
Culdrose12:22ZMostly Cloudy55 50251011.2NE 8 55255
Scilly; Saint MaryS12:20ZMostly Cloudy55 48251012.1NNE 12 55101
Bournemouth Airport12:20ZCloudy55 54141010.1NNE 9 5536
Southampton / Weather Centre12:20ZShowers nearby55 54141010.1NNE 6 5529
Biggin Hill 12:20ZFog55 550.371011.2NNE 5 55600
Farnborough12:20ZLight Drizzle55 5441011.1NE 6 55213
London / Heathrow Airport12:20ZLight Drizzle55 5521011.1NE 5 5578
Blackpool Airport12:20ZNot Avail.55 452.751015.1ENE 9 5532
Isle Of Man / Ronaldsway Airport12:20ZClear55 45301015.1ESE 6 5555
Valley12:50ZClear55 45111014.1NE 11 553
Glasgow Airport12:20ZClear55 45131016.1N 1 5526
Prestwick Airport12:20ZClear55 45131016.2N 2 5565
Benbecula12:20ZClear55 46131012.1SW 14 5519
Tiree12:20ZShowers nearby55 48151013.1SSW 13 5539
Leuchars12:50ZClear55 41251015.1W 5 5539
Cambridge12:20ZMist55 542.51012.1NNE 8 5549
Stansted Airport12:20ZMist55 552.251011.2N 7 55347
Lakenheath Royal Air Force Base12:41ZCloudy55 5461011.7N 11 5532
Northolt12:18ZLight Drizzle55 5521011.1NE 6 55124
Altnaharra13:00ZNot Avail.55 43201012.7SSW 8 55265
Strathallan13:00ZNot Avail.55 41251015.5SW 9 55114
Keswick13:00ZNot Avail.55 41251015.5SE 5 55265
Crosby13:00ZNot Avail.55 48301014.7NE 6 5526
Kenley13:00ZClear55 N/A0.121011.5NE 4 557
Walney Island13:00ZNot Avail.56 44251015.0NW 6 5649
Machrihanish13:00ZNot Avail.56 44161014.7WSW 3 5642
Prestwick Rnas13:00ZNot Avail.56 43301015.2WSW 2 5685
Portglenone13:00ZNot Avail.56 43201014.5S 6 56209
Belfast / Harbour12:20ZClear57 39251015.1N 3 5716
London City Airport12:20ZMist57 572.51011.1N 4 5716
Southend-On-Sea 12:20ZLight Drizzle57 552.751011.1NNE 4 5749
Pembrey Sands12:50ZMostly Cloudy57 48201012.1NE 12 579
Inverness / Dalcross12:20ZClear57 45131014.1SW 13 5729
Kinloss13:00ZNot Avail.57 42401013.7WSW 11 5722
Lossiemouth12:50ZClear57 41251013.1SW 8 5742
Norwich Weather Centre12:20ZLight Drizzle57 551.871011.1NNE 9 5745
Mildenhall Royal Air Force Base12:24ZCloudy57 571.751011.5N 7 5732
Wattisham12:14ZLight Drizzle57 5731011.1N 7 57285
Mumbles13:00ZNot Avail.57 49301012.5NE 14 Gusting to 25 57114
Milford Haven13:00ZNot Avail.58 47301012.7NE 8 58144
Alderney / Channel Island12:20ZMostly Cloudy59 57141009.1SSE 10 59232
Guernsey Airport12:20ZLight Drizzle59 592.751008.1SE 8 59334
Jersey Airport12:20ZMostly Cloudy59 57201009.1SSE 12 59275
London / Gatwick Airport12:20ZMist59 5731011.1NE 5 59203
Shoeburyness13:00ZMist59 5841011.4N 4 596
Manston13:00ZClear61 601.751011.4NNW 4 61180
Thorney Island13:00ZNot Avail.62 58131010.2ENE 6 6213
Shoreham Airport12:20ZPartly Cloudy63 6161010.1N 6 636
Saint Catherines Point13:00ZNot Avail.64 6071009.7E 6 6452
Lydd Airport 12:20ZClear68 632.751011.1SSW 11 689
Herstmonceux13:00ZNot Avail.68 62121010.5S 4 68170


Atlantic
Tropical Watch